TimeEDT,TemperatureF,Dew PointF,Humidity,Sea Level PressureIn,VisibilityMPH,Wind Direction,Wind SpeedMPH,Gust SpeedMPH,PrecipitationIn,Events,Conditions,WindDirDegrees,DateUTC
12:15 AM,61.7,61.7,100,29.95,7.0,Calm,Calm,-,N/A,,Overcast,0,2012-10-02 04:15:00
12:35 AM,61.7,61.7,100,29.94,7.0,Calm,Calm,-,N/A,Rain,Light Rain,0,2012-10-02 04:35:00
12:55 AM,61.7,61.7,100,29.94,10.0,Calm,Calm,-,N/A,,Overcast,0,2012-10-02 04:55:00
1:15 AM,61.7,61.7,100,29.94,10.0,Calm,Calm,-,N/A,,Light Drizzle,0,2012-10-02 05:15:00
1:35 AM,61.7,61.7,100,29.94,7.0,Calm,Calm,-,N/A,,Overcast,0,2012-10-02 05:35:00
1:55 AM,61.5,61.5,100,29.93,7.0,Calm,Calm,-,N/A,Rain,Rain,0,2012-10-02 05:55:00
2:15 AM,61.7,61.7,100,29.93,7.0,Calm,Calm,-,N/A,,Light Drizzle,0,2012-10-02 06:15:00
2:35 AM,61.7,61.7,100,29.92,5.0,Calm,Calm,-,N/A,,Overcast,0,2012-10-02 06:35:00
2:55 AM,61.7,61.7,100,29.92,7.0,Calm,Calm,-,N/A,Rain,Light Rain,0,2012-10-02 06:55:00
3:15 AM,61.7,61.7,100,29.92,7.0,Calm,Calm,-,N/A,,Overcast,0,2012-10-02 07:15:00
3:35 AM,61.7,61.7,100,29.91,7.0,NNE,3.5,-,N/A,,Overcast,30,2012-10-02 07:35:00
4:15 AM,61.7,61.7,100,29.90,5.0,North,4.6,-,N/A,,Overcast,10,2012-10-02 08:15:00
4:35 AM,61.7,61.7,100,29.89,5.0,NNE,3.5,-,N/A,,Overcast,20,2012-10-02 08:35:00
4:55 AM,61.7,61.7,100,29.89,3.0,North,4.6,-,0.03,Rain,Heavy Rain,350,2012-10-02 08:55:00
5:15 AM,61.7,61.7,100,29.89,2.0,Calm,Calm,-,0.08,Rain,Heavy Rain,0,2012-10-02 09:15:00
5:35 AM,61.7,61.7,100,29.91,2.0,West,4.6,-,0.10,Rain,Light Rain,260,2012-10-02 09:35:00
5:55 AM,61.7,61.7,100,29.90,2.5,NNW,4.6,-,0.13,Rain,Rain,340,2012-10-02 09:55:00
6:15 AM,62.1,62.1,100,29.90,3.0,North,3.5,-,0.01,Rain,Rain,350,2012-10-02 10:15:00
6:35 AM,62.2,62.2,100,29.90,2.5,Calm,Calm,-,0.05,Rain,Light Rain,0,2012-10-02 10:35:00
6:55 AM,62.2,62.2,100,29.90,2.0,WNW,4.6,-,0.13,Rain,Heavy Rain,290,2012-10-02 10:55:00
7:15 AM,62.2,62.2,100,29.91,2.5,WNW,3.5,-,0.05,Rain,Rain,300,2012-10-02 11:15:00
7:35 AM,62.6,62.6,100,29.92,2.5,Calm,Calm,-,0.06,,Drizzle,0,2012-10-02 11:35:00
7:55 AM,62.6,62.6,100,29.92,1.8,Calm,Calm,-,0.17,Rain,Heavy Rain,0,2012-10-02 11:55:00
8:15 AM,62.8,62.8,100,29.92,3.0,Calm,Calm,-,0.02,Rain,Light Rain,0,2012-10-02 12:15:00
8:35 AM,62.8,62.8,100,29.92,2.0,Calm,Calm,-,0.08,Rain,Heavy Rain,0,2012-10-02 12:35:00
8:55 AM,62.8,62.8,100,29.93,1.2,Calm,Calm,-,0.24,Rain,Heavy Rain,0,2012-10-02 12:55:00
9:15 AM,63.1,63.1,100,29.92,5.0,NNW,4.6,-,0.04,Rain,Rain,330,2012-10-02 13:15:00
9:35 AM,63.0,63.0,100,29.93,0.5,NW,4.6,-,0.34,Rain,Heavy Rain,320,2012-10-02 13:35:00
9:55 AM,63.1,63.1,100,29.93,5.0,North,3.5,-,0.42,Rain,Heavy Rain,360,2012-10-02 13:55:00
10:15 AM,63.7,63.7,100,29.94,10.0,NNE,4.6,-,0.04,Rain,Rain,30,2012-10-02 14:15:00
10:35 AM,64.4,64.4,100,29.93,10.0,NE,4.6,-,0.04,,Overcast,50,2012-10-02 14:35:00
10:55 AM,65.1,65.1,100,29.93,10.0,NE,4.6,-,0.04,,Overcast,40,2012-10-02 14:55:00
11:15 AM,65.3,65.3,100,29.92,7.0,East,3.5,-,N/A,Rain,Rain,80,2012-10-02 15:15:00
11:35 AM,65.8,65.8,100,29.92,7.0,NE,5.8,-,0.01,,Drizzle,50,2012-10-02 15:35:00
11:55 AM,66.6,66.6,100,29.92,10.0,NNE,6.9,-,0.01,,Overcast,30,2012-10-02 15:55:00
12:15 PM,66.6,66.6,100,29.91,7.0,NE,4.6,-,N/A,Rain,Rain,40,2012-10-02 16:15:00
12:35 PM,67.1,67.1,100,29.91,10.0,NE,4.6,-,N/A,,Overcast,40,2012-10-02 16:35:00
12:55 PM,67.3,67.3,100,29.91,7.0,NE,5.8,-,N/A,Rain,Light Rain,40,2012-10-02 16:55:00
1:15 PM,67.6,67.6,100,29.91,10.0,NE,5.8,-,N/A,,Overcast,50,2012-10-02 17:15:00
1:35 PM,67.6,67.6,100,29.90,10.0,Calm,Calm,-,N/A,Rain,Rain,0,2012-10-02 17:35:00
1:55 PM,67.8,67.8,100,29.90,10.0,Calm,Calm,-,N/A,,Overcast,0,2012-10-02 17:55:00
2:15 PM,68.0,68.0,100,29.90,4.0,Calm,Calm,-,N/A,,Overcast,0,2012-10-02 18:15:00
2:35 PM,68.0,68.0,100,29.89,1.5,NNE,3.5,-,N/A,,Overcast,30,2012-10-02 18:35:00
2:55 PM,68.2,68.2,100,29.90,2.0,Calm,Calm,-,N/A,,Overcast,0,2012-10-02 18:55:00
3:15 PM,68.2,68.2,100,29.89,2.5,North,3.5,-,N/A,,Overcast,10,2012-10-02 19:15:00
3:35 PM,68.0,68.0,100,29.88,3.0,Calm,Calm,-,N/A,,Overcast,0,2012-10-02 19:35:00
3:55 PM,68.0,68.0,100,29.88,2.0,NNE,4.6,-,N/A,,Overcast,30,2012-10-02 19:55:00
4:15 PM,68.4,68.4,100,29.88,2.5,NNE,4.6,-,N/A,,Overcast,30,2012-10-02 20:15:00
4:35 PM,68.4,68.4,100,29.89,4.0,Calm,Calm,-,N/A,,Overcast,0,2012-10-02 20:35:00
4:55 PM,68.5,68.5,100,29.89,4.0,NNE,3.5,-,N/A,,Overcast,20,2012-10-02 20:55:00
5:15 PM,68.4,68.4,100,29.90,5.0,Calm,Calm,-,N/A,,Overcast,0,2012-10-02 21:15:00
5:35 PM,68.4,68.4,100,29.90,4.0,NNE,3.5,-,N/A,,Overcast,20,2012-10-02 21:35:00
5:55 PM,68.2,68.2,100,29.90,2.0,Calm,Calm,-,N/A,,Overcast,0,2012-10-02 21:55:00
6:15 PM,68.2,68.2,100,29.91,1.0,Calm,Calm,-,N/A,,Overcast,0,2012-10-02 22:15:00
6:35 PM,68.2,68.2,100,29.91,0.8,NNE,3.5,-,N/A,,Overcast,30,2012-10-02 22:35:00
6:55 PM,68.0,68.0,100,29.91,0.5,Calm,Calm,-,N/A,Fog,Fog,0,2012-10-02 22:55:00
7:15 PM,67.6,67.6,100,29.92,2.5,ENE,3.5,-,N/A,,Overcast,70,2012-10-02 23:15:00
7:35 PM,67.5,67.5,100,29.92,1.0,NNE,3.5,-,N/A,,Overcast,30,2012-10-02 23:35:00
8:15 PM,67.3,67.3,100,29.93,0.5,Calm,Calm,-,N/A,Fog,Fog,0,2012-10-03 00:15:00
8:35 PM,67.3,67.3,100,29.94,0.5,Calm,Calm,-,N/A,Fog,Fog,0,2012-10-03 00:35:00
8:55 PM,67.3,67.3,100,29.94,0.8,Calm,Calm,-,N/A,,Overcast,0,2012-10-03 00:55:00
9:15 PM,67.3,67.3,100,29.95,0.8,Calm,Calm,-,N/A,,Overcast,0,2012-10-03 01:15:00
9:35 PM,67.1,67.1,100,29.95,2.5,Calm,Calm,-,N/A,,Overcast,0,2012-10-03 01:35:00
10:15 PM,67.3,67.3,100,29.95,3.0,Calm,Calm,-,N/A,,Overcast,0,2012-10-03 02:15:00
10:35 PM,67.3,67.3,100,29.94,2.5,NNE,3.5,-,N/A,,Overcast,20,2012-10-03 02:35:00
10:55 PM,67.1,67.1,100,29.95,1.5,Calm,Calm,-,N/A,,Overcast,0,2012-10-03 02:55:00
11:15 PM,67.1,67.1,100,29.97,1.5,South,6.9,-,N/A,Rain,Rain,190,2012-10-03 03:15:00
11:35 PM,67.3,67.3,100,29.96,5.0,Calm,Calm,-,0.02,,Overcast,0,2012-10-03 03:35:00
11:55 PM,67.5,67.5,100,29.95,4.0,Calm,Calm,-,0.02,,Overcast,0,2012-10-03 03:55:00